Time,TemperatureF,DewpointF,PressureIn,WindDirection,WindDirectionDegrees,WindSpeedMPH,WindSpeedGustMPH,Humidity,HourlyPrecipIn,Conditions,Clouds,dailyrainin,SoftwareType,DateUTC
2013-02-23 00:14:00,32.0,31.8,29.78,ENE,67,0.0,-999.0,99,-99.99,,,0.00,Acu-Link.com,2013-02-23 05:14:00,
2013-02-23 00:29:00,32.2,32.0,29.78,ESE,112,0.0,-999.0,99,-99.99,,,0.00,Acu-Link.com,2013-02-23 05:29:00,
2013-02-23 00:44:00,32.2,32.0,29.77,WSW,247,0.0,-999.0,99,-99.99,,,0.00,Acu-Link.com,2013-02-23 05:44:00,
2013-02-23 00:59:00,32.4,31.6,29.77,South,180,0.0,-999.0,97,-99.99,,,0.00,Acu-Link.com,2013-02-23 05:59:00,
2013-02-23 01:14:00,32.4,31.6,29.77,West,270,0.0,-999.0,97,-99.99,,,0.00,Acu-Link.com,2013-02-23 06:14:00,
2013-02-23 01:29:00,32.4,31.6,29.77,WNW,292,1.1,-999.0,97,-99.99,,,0.00,Acu-Link.com,2013-02-23 06:29:00,
2013-02-23 01:45:00,32.4,31.6,29.77,East,90,0.0,-999.0,97,-99.99,,,0.00,Acu-Link.com,2013-02-23 06:45:00,
2013-02-23 02:00:00,32.4,31.1,29.77,SE,135,0.0,-999.0,95,-99.99,,,0.00,Acu-Link.com,2013-02-23 07:00:00,
2013-02-23 02:15:00,32.2,30.9,29.78,ESE,112,0.0,-999.0,95,-99.99,,,0.00,Acu-Link.com,2013-02-23 07:15:00,
2013-02-23 02:30:00,32.0,30.5,29.78,SSE,157,2.2,-999.0,94,-99.99,,,0.00,Acu-Link.com,2013-02-23 07:30:00,
2013-02-23 02:45:00,31.6,29.3,29.78,ESE,112,1.7,-999.0,91,-99.99,,,0.00,Acu-Link.com,2013-02-23 07:45:00,
2013-02-23 03:00:00,31.3,27.6,29.78,WSW,247,1.7,-999.0,86,-99.99,,,0.00,Acu-Link.com,2013-02-23 08:00:00,
2013-02-23 03:16:00,30.9,25.8,29.77,SSE,157,1.7,-999.0,81,-99.99,,,0.00,Acu-Link.com,2013-02-23 08:16:00,
2013-02-23 03:31:00,30.6,25.8,29.77,SE,135,1.7,-999.0,82,-99.99,,,0.00,Acu-Link.com,2013-02-23 08:31:00,
2013-02-23 03:46:00,30.4,25.6,29.77,East,90,3.7,-999.0,82,-99.99,,,0.00,Acu-Link.com,2013-02-23 08:46:00,
2013-02-23 04:01:00,30.2,25.7,29.77,SSW,202,2.2,-999.0,83,-99.99,,,0.00,Acu-Link.com,2013-02-23 09:01:00,
2013-02-23 04:20:00,30.2,25.7,29.77,SW,225,0.0,-999.0,83,-99.99,,,0.00,Acu-Link.com,2013-02-23 09:20:00,
2013-02-23 04:35:00,29.8,25.6,29.77,SSE,157,1.7,-999.0,84,-99.99,,,0.00,Acu-Link.com,2013-02-23 09:35:00,
2013-02-23 04:50:00,29.7,25.5,29.77,West,270,0.0,-999.0,84,-99.99,,,0.00,Acu-Link.com,2013-02-23 09:50:00,
2013-02-23 05:06:00,29.7,24.9,29.77,SSE,157,0.0,-999.0,82,-99.99,,,0.00,Acu-Link.com,2013-02-23 10:06:00,
2013-02-23 05:21:00,29.5,24.7,29.77,SW,225,1.7,-999.0,82,-99.99,,,0.00,Acu-Link.com,2013-02-23 10:21:00,
2013-02-23 05:36:00,29.3,24.5,29.78,SSW,202,0.0,-999.0,82,-99.99,,,0.00,Acu-Link.com,2013-02-23 10:36:00,
2013-02-23 05:51:00,29.1,24.3,29.77,East,90,0.0,-999.0,82,-99.99,,,0.00,Acu-Link.com,2013-02-23 10:51:00,
2013-02-23 06:06:00,29.1,24.6,29.77,ESE,112,1.7,-999.0,83,-99.99,,,0.00,Acu-Link.com,2013-02-23 11:06:00,
2013-02-23 06:21:00,28.8,24.9,29.78,East,90,1.1,-999.0,85,-99.99,,,0.00,Acu-Link.com,2013-02-23 11:21:00,
2013-02-23 06:36:00,28.6,25.0,29.78,East,90,0.0,-999.0,86,-99.99,,,0.00,Acu-Link.com,2013-02-23 11:36:00,
2013-02-23 06:51:00,28.4,24.8,29.78,ESE,112,1.7,-999.0,86,-99.99,,,0.00,Acu-Link.com,2013-02-23 11:51:00,
2013-02-23 07:07:00,28.2,24.6,29.78,SSE,157,1.1,-999.0,86,-99.99,,,0.00,Acu-Link.com,2013-02-23 12:07:00,
2013-02-23 07:22:00,28.2,24.8,29.78,WNW,292,1.1,-999.0,87,-99.99,,,0.00,Acu-Link.com,2013-02-23 12:22:00,
2013-02-23 07:37:00,28.0,24.6,29.79,ESE,112,2.7,-999.0,87,-99.99,,,0.00,Acu-Link.com,2013-02-23 12:37:00,
2013-02-23 07:52:00,28.0,24.6,29.79,ESE,112,1.1,-999.0,87,-99.99,,,0.00,Acu-Link.com,2013-02-23 12:52:00,
2013-02-23 08:07:00,28.2,24.6,29.80,SSE,157,2.7,-999.0,86,-99.99,,,0.00,Acu-Link.com,2013-02-23 13:07:00,
2013-02-23 08:22:00,28.6,24.7,29.80,SSE,157,1.7,-999.0,85,-99.99,,,0.00,Acu-Link.com,2013-02-23 13:22:00,
2013-02-23 08:37:00,28.9,24.7,29.79,NE,45,0.0,-999.0,84,-99.99,,,0.00,Acu-Link.com,2013-02-23 13:37:00,
2013-02-23 08:52:00,29.7,25.2,29.78,SW,225,1.7,-999.0,83,-99.99,,,0.00,Acu-Link.com,2013-02-23 13:52:00,
2013-02-23 09:07:00,30.0,25.8,29.78,SW,225,2.2,-999.0,84,-99.99,,,0.00,Acu-Link.com,2013-02-23 14:07:00,
2013-02-23 09:22:00,30.2,26.0,29.79,East,90,2.2,-999.0,84,-99.99,,,0.00,Acu-Link.com,2013-02-23 14:22:00,
2013-02-23 09:38:00,31.1,26.6,29.79,WNW,292,1.7,-999.0,83,-99.99,,,0.00,Acu-Link.com,2013-02-23 14:38:00,
2013-02-23 09:53:00,32.4,27.2,29.78,West,270,2.2,-999.0,81,-99.99,,,0.00,Acu-Link.com,2013-02-23 14:53:00,
2013-02-23 10:08:00,32.4,27.2,29.78,WSW,247,2.2,-999.0,81,-99.99,,,0.00,Acu-Link.com,2013-02-23 15:08:00,
2013-02-23 10:23:00,33.1,27.3,29.78,WSW,247,1.7,-999.0,79,-99.99,,,0.00,Acu-Link.com,2013-02-23 15:23:00,
2013-02-23 10:38:00,33.6,27.2,29.78,ESE,112,2.7,-999.0,77,-99.99,,,0.00,Acu-Link.com,2013-02-23 15:38:00,
2013-02-23 10:53:00,33.4,27.0,29.78,NE,45,2.7,-999.0,77,-99.99,,,0.00,Acu-Link.com,2013-02-23 15:53:00,
2013-02-23 11:08:00,34.2,27.4,29.78,ESE,112,2.2,-999.0,76,-99.99,,,0.00,Acu-Link.com,2013-02-23 16:08:00,
2013-02-23 11:23:00,34.2,26.8,29.77,East,90,2.7,-999.0,74,-99.99,,,0.00,Acu-Link.com,2013-02-23 16:23:00,
2013-02-23 11:38:00,34.0,26.6,29.78,NW,315,1.7,-999.0,74,-99.99,,,0.00,Acu-Link.com,2013-02-23 16:38:00,
2013-02-23 11:54:00,34.3,26.2,29.79,SW,225,1.1,-999.0,72,-99.99,,,0.00,Acu-Link.com,2013-02-23 16:54:00,
2013-02-23 12:09:00,34.5,26.8,29.78,South,180,1.7,-999.0,73,-99.99,,,0.00,Acu-Link.com,2013-02-23 17:09:00,
2013-02-23 12:24:00,33.4,26.3,29.78,SW,225,2.7,-999.0,75,-99.99,,,0.00,Acu-Link.com,2013-02-23 17:24:00,
2013-02-23 12:39:00,34.0,26.3,29.78,SSE,157,2.2,-999.0,73,-99.99,,,0.00,Acu-Link.com,2013-02-23 17:39:00,
2013-02-23 12:54:00,34.2,26.5,29.78,North,0,1.7,-999.0,73,-99.99,,,0.00,Acu-Link.com,2013-02-23 17:54:00,
2013-02-23 13:09:00,34.9,26.5,29.77,West,270,2.2,-999.0,71,-99.99,,,0.00,Acu-Link.com,2013-02-23 18:09:00,
2013-02-23 13:25:00,34.5,25.0,29.78,West,270,3.2,-999.0,68,-99.99,,,0.00,Acu-Link.com,2013-02-23 18:25:00,
2013-02-23 13:40:00,35.8,26.3,29.78,SSE,157,1.7,-999.0,68,-99.99,,,0.01,Acu-Link.com,2013-02-23 18:40:00,
2013-02-23 13:55:00,36.1,25.9,29.77,NNW,337,2.2,-999.0,66,-99.99,,,0.01,Acu-Link.com,2013-02-23 18:55:00,
2013-02-23 14:10:00,36.5,24.7,29.76,WSW,247,1.7,-999.0,62,-99.99,,,0.01,Acu-Link.com,2013-02-23 19:10:00,
2013-02-23 14:25:00,36.1,24.4,29.77,West,270,2.2,-999.0,62,-99.99,,,0.03,Acu-Link.com,2013-02-23 19:25:00,
2013-02-23 14:40:00,34.7,23.8,29.76,West,270,1.7,-999.0,64,-99.99,,,0.03,Acu-Link.com,2013-02-23 19:40:00,
2013-02-23 14:55:00,32.7,25.7,29.78,WSW,247,2.7,-999.0,75,-99.99,,,0.04,Acu-Link.com,2013-02-23 19:55:00,
2013-02-23 15:11:00,32.7,26.0,29.78,SSE,157,1.7,-999.0,76,-99.99,,,0.04,Acu-Link.com,2013-02-23 20:11:00,
2013-02-23 15:26:00,33.4,26.3,29.77,WNW,292,1.7,-999.0,75,-99.99,,,0.04,Acu-Link.com,2013-02-23 20:26:00,
2013-02-23 15:41:00,34.2,26.5,29.78,SSW,202,0.0,-999.0,73,-99.99,,,0.04,Acu-Link.com,2013-02-23 20:41:00,
2013-02-23 15:56:00,32.2,26.7,29.78,West,270,1.7,-999.0,80,-99.99,,,0.05,Acu-Link.com,2013-02-23 20:56:00,
2013-02-23 16:11:00,33.4,27.3,29.77,ESE,112,1.1,-999.0,78,-99.99,,,0.05,Acu-Link.com,2013-02-23 21:11:00,
2013-02-23 16:26:00,33.3,26.6,29.78,ENE,67,1.7,-999.0,76,-99.99,,,0.05,Acu-Link.com,2013-02-23 21:26:00,
2013-02-23 16:42:00,32.0,25.0,29.78,SSW,202,1.1,-999.0,75,-99.99,,,0.05,Acu-Link.com,2013-02-23 21:42:00,
2013-02-23 16:57:00,31.6,23.3,29.79,NNE,22,1.7,-999.0,71,-99.99,,,0.05,Acu-Link.com,2013-02-23 21:57:00,
2013-02-23 17:12:00,31.1,23.5,29.78,WNW,292,0.0,-999.0,73,-99.99,,,0.05,Acu-Link.com,2013-02-23 22:12:00,
2013-02-23 17:27:00,30.4,24.7,29.78,NNW,337,2.2,-999.0,79,-99.99,,,0.05,Acu-Link.com,2013-02-23 22:27:00,
2013-02-23 17:42:00,29.1,25.2,29.80,WNW,292,1.1,-999.0,85,-99.99,,,0.05,Acu-Link.com,2013-02-23 22:42:00,
2013-02-23 17:57:00,28.8,24.0,29.80,West,270,2.7,-999.0,82,-99.99,,,0.05,Acu-Link.com,2013-02-23 22:57:00,
2013-02-23 18:12:00,28.8,24.3,29.80,East,90,1.7,-999.0,83,-99.99,,,0.05,Acu-Link.com,2013-02-23 23:12:00,
2013-02-23 18:27:00,28.4,23.9,29.80,SE,135,1.7,-999.0,83,-99.99,,,0.05,Acu-Link.com,2013-02-23 23:27:00,
2013-02-23 18:42:00,28.2,24.0,29.82,ESE,112,1.1,-999.0,84,-99.99,,,0.05,Acu-Link.com,2013-02-23 23:42:00,
2013-02-23 18:58:00,27.9,23.7,29.82,WNW,292,4.7,-999.0,84,-99.99,,,0.05,Acu-Link.com,2013-02-23 23:58:00,
2013-02-23 19:13:00,27.5,23.0,29.82,South,180,1.7,-999.0,83,-99.99,,,0.05,Acu-Link.com,2013-02-24 00:13:00,
2013-02-23 19:28:00,27.5,23.0,29.82,SSE,157,1.1,-999.0,83,-99.99,,,0.05,Acu-Link.com,2013-02-24 00:28:00,
2013-02-23 19:43:00,27.3,22.8,29.82,SE,135,0.0,-999.0,83,-99.99,,,0.05,Acu-Link.com,2013-02-24 00:43:00,
2013-02-23 19:58:00,27.3,23.1,29.82,East,90,1.1,-999.0,84,-99.99,,,0.05,Acu-Link.com,2013-02-24 00:58:00,
2013-02-23 20:13:00,27.1,22.6,29.82,East,90,1.1,-999.0,83,-99.99,,,0.05,Acu-Link.com,2013-02-24 01:13:00,
2013-02-23 20:28:00,26.8,22.1,29.82,NE,45,1.1,-999.0,82,-99.99,,,0.05,Acu-Link.com,2013-02-24 01:28:00,
2013-02-23 20:44:00,26.6,21.9,29.82,SE,135,0.0,-999.0,82,-99.99,,,0.05,Acu-Link.com,2013-02-24 01:44:00,
2013-02-23 20:59:00,26.1,21.4,29.83,ESE,112,0.0,-999.0,82,-99.99,,,0.05,Acu-Link.com,2013-02-24 01:59:00,
2013-02-23 21:14:00,25.9,21.5,29.83,East,90,0.0,-999.0,83,-99.99,,,0.05,Acu-Link.com,2013-02-24 02:14:00,
2013-02-23 21:29:00,25.9,21.5,29.83,NNE,22,1.7,-999.0,83,-99.99,,,0.05,Acu-Link.com,2013-02-24 02:29:00,
2013-02-23 21:44:00,26.1,21.7,29.83,South,180,0.0,-999.0,83,-99.99,,,0.05,Acu-Link.com,2013-02-24 02:44:00,
2013-02-23 21:59:00,26.1,21.7,29.82,ESE,112,1.1,-999.0,83,-99.99,,,0.05,Acu-Link.com,2013-02-24 02:59:00,
2013-02-23 22:15:00,26.1,21.7,29.82,NE,45,0.0,-999.0,83,-99.99,,,0.05,Acu-Link.com,2013-02-24 03:15:00,
2013-02-23 22:30:00,25.7,21.5,29.82,SSW,202,1.1,-999.0,84,-99.99,,,0.05,Acu-Link.com,2013-02-24 03:30:00,
2013-02-23 22:45:00,25.5,21.4,29.81,WNW,292,0.0,-999.0,84,-99.99,,,0.05,Acu-Link.com,2013-02-24 03:45:00,
2013-02-23 23:00:00,25.2,21.3,29.81,NW,315,0.0,-999.0,85,-99.99,,,0.05,Acu-Link.com,2013-02-24 04:00:00,
2013-02-23 23:15:00,25.0,21.1,29.81,West,270,0.0,-999.0,85,-99.99,,,0.05,Acu-Link.com,2013-02-24 04:15:00,
2013-02-23 23:30:00,25.0,21.4,29.80,SW,225,1.1,-999.0,86,-99.99,,,0.05,Acu-Link.com,2013-02-24 04:30:00,
2013-02-23 23:45:00,25.0,21.4,29.80,ESE,112,0.0,-999.0,86,-99.99,,,0.05,Acu-Link.com,2013-02-24 04:45:00,